TimePDT,TemperatureF,Dew PointF,Humidity,Sea Level PressureIn,VisibilityMPH,Wind Direction,Wind SpeedMPH,Gust SpeedMPH,PrecipitationIn,Events,Conditions,WindDirDegrees,DateUTC
12:54 AM,-9999,-9999,N/A,-9999,-9999.0,SE,12.7,-,0.00,,Overcast,140,2013-06-02 07:54:00
1:40 AM,-9999,-9999,N/A,-9999,-9999.0,Calm,Calm,-,N/A,,Overcast,0,2013-06-02 08:40:00
1:54 AM,-9999,-9999,N/A,-9999,-9999.0,ENE,3.5,-,N/A,,Overcast,60,2013-06-02 08:54:00
2:54 AM,-9999,-9999,N/A,-9999,-9999.0,Calm,Calm,-,N/A,,Overcast,0,2013-06-02 09:54:00
3:27 AM,-9999,-9999,N/A,-9999,-9999.0,NE,3.5,-,N/A,,Overcast,50,2013-06-02 10:27:00
3:54 AM,-9999,-9999,N/A,-9999,-9999.0,Calm,Calm,-,N/A,,Overcast,0,2013-06-02 10:54:00
4:03 AM,-9999,-9999,N/A,-9999,-9999.0,NE,3.5,-,N/A,,Overcast,40,2013-06-02 11:03:00
4:54 AM,-9999,-9999,N/A,-9999,-9999.0,North,3.5,-,N/A,,Overcast,360,2013-06-02 11:54:00
5:54 AM,-9999,-9999,N/A,-9999,-9999.0,Calm,Calm,-,N/A,,Overcast,0,2013-06-02 12:54:00
6:54 AM,-9999,-9999,N/A,-9999,-9999.0,NE,3.5,-,N/A,,Overcast,40,2013-06-02 13:54:00
7:54 AM,-9999,-9999,N/A,-9999,-9999.0,South,3.5,-,N/A,,Overcast,170,2013-06-02 14:54:00
8:54 AM,69.8,59.0,68,29.81,7.0,South,6.9,-,N/A,,Overcast,180,2013-06-02 15:54:00
9:04 AM,69.8,59.0,68,29.81,7.0,South,6.9,-,N/A,,Overcast,180,2013-06-02 16:04:00
9:54 AM,67.5,59.0,74,29.81,7.0,South,9.2,-,N/A,,Overcast,180,2013-06-02 16:54:00
10:54 AM,67.8,61.2,79,29.83,7.0,South,11.5,-,N/A,,Overcast,180,2013-06-02 17:54:00
11:54 AM,64.4,60.3,86,29.82,7.0,WSW,8.1,-,N/A,,Overcast,240,2013-06-02 18:54:00
12:27 PM,64.4,60.8,88,29.82,3.0,WSW,8.1,-,N/A,,Overcast,240,2013-06-02 19:27:00
12:35 PM,64.4,60.8,88,29.82,3.0,WSW,8.1,-,N/A,,Overcast,250,2013-06-02 19:35:00
12:54 PM,65.1,60.3,84,29.82,3.0,WSW,8.1,-,N/A,,Overcast,240,2013-06-02 19:54:00
1:54 PM,64.4,59.9,85,29.81,3.0,SW,9.2,-,0.00,,Drizzle,220,2013-06-02 20:54:00
2:22 PM,66.2,59.0,78,29.81,3.0,SSW,9.2,-,0.00,,Drizzle,210,2013-06-02 21:22:00
2:54 PM,64.6,59.4,83,29.81,1.5,SW,9.2,-,0.00,,Overcast,230,2013-06-02 21:54:00
3:54 PM,64.0,60.6,89,29.81,1.5,SW,9.2,-,N/A,,Overcast,220,2013-06-02 22:54:00
4:54 PM,61.7,58.6,90,29.81,1.5,West,6.9,-,0.00,,Drizzle,270,2013-06-02 23:54:00
5:19 PM,62.6,59.0,88,29.78,1.0,WNW,8.1,-,0.00,,Drizzle,290,2013-06-03 00:19:00
5:39 PM,62.6,59.0,88,29.78,0.5,WNW,6.9,-,0.00,Fog,Fog,290,2013-06-03 00:39:00
5:54 PM,61.7,58.5,89,29.78,0.5,West,6.9,-,0.00,Fog,Fog,280,2013-06-03 00:54:00
6:01 PM,-9999,-9999,N/A,-9999,-9999.0,West,6.9,-,N/A,Fog,Fog,270,2013-06-03 01:01:00
6:17 PM,62.6,59.0,88,29.78,0.5,WSW,6.9,-,N/A,Fog,Fog,250,2013-06-03 01:17:00
6:44 PM,62.6,59.0,88,29.78,3.0,West,6.9,-,N/A,,Overcast,260,2013-06-03 01:44:00
6:54 PM,62.2,58.6,88,29.78,3.0,West,5.8,-,N/A,,Overcast,260,2013-06-03 01:54:00
7:54 PM,62.2,58.6,88,29.78,3.0,West,5.8,-,N/A,,Overcast,280,2013-06-03 02:54:00
8:01 PM,-9999,-9999,N/A,-9999,-9999.0,West,6.9,-,N/A,,Overcast,280,2013-06-03 03:01:00
8:54 PM,-9999,-9999,N/A,-9999,-9999.0,WNW,5.8,-,N/A,,Overcast,290,2013-06-03 03:54:00
9:43 PM,-9999,-9999,N/A,-9999,-9999.0,WNW,4.6,-,N/A,,Overcast,290,2013-06-03 04:43:00
9:54 PM,-9999,-9999,N/A,-9999,-9999.0,Calm,Calm,-,N/A,,Overcast,0,2013-06-03 04:54:00
10:07 PM,-9999,-9999,N/A,-9999,-9999.0,WNW,4.6,-,N/A,,Overcast,290,2013-06-03 05:07:00
10:54 PM,-9999,-9999,N/A,-9999,-9999.0,WNW,4.6,-,N/A,,Overcast,300,2013-06-03 05:54:00
11:18 PM,-9999,-9999,N/A,-9999,-9999.0,Calm,Calm,-,N/A,,Overcast,0,2013-06-03 06:18:00
11:54 PM,-9999,-9999,N/A,-9999,-9999.0,Calm,Calm,-,N/A,,Overcast,0,2013-06-03 06:54:00